Regional Weather Roundup
Issued by NWS

Home | Current Version | Previous Version | Text Only | Print | Product List | Glossary On
Versions: 1 2 3 4 5 6 7 8 9 10 11 12 13 14 15 16 17 18 19 20 21 22 23 24 25 26 27 28 29 30 31 32 33 34 35 36 37 38 39 40 41 42 43 44 45 46 47 48 49 50
000
ASUS45 KABQ 301310
RWRNM
WEATHER ROUNDUP FOR NEW MEXICO
NATIONAL WEATHER SERVICE ALBUQUERQUE NM
600 AM MST FRI JAN 30 2015

NOTE: "FAIR" MEANS FEW OR NO CLOUDS BELOW 12,000 FEET AGL WITH NO
       SIGNIFICANT WEATHER OR OBSTRUCTIONS TO VISION.

      THIS PRODUCT IS RELEASED AS TWO VERSIONS.  ONE VERSION NEAR
      THE TOP OF THE HOUR CONTAINING PRELIMINARY DATA FROM ALBUQUERQUE
      AND OTHER STATIONS.  A FINAL VERSION WITH ADDITIONAL DATA IS
      ISSUED ABOUT 10 MINUTES AFTER THE HOUR.

NMZ501-503-504-510>518-301400-
NORTHWEST PLATEAU/NORTHCENTRAL MOUNTAINS

CITY           SKY/WX    TMP DP  RH WIND       PRES   REMARKS
FARMINGTON     LGT SNOW  32  31  96 E7        30.23F VSB 3/4 WCI  26
LOS ALAMOS     LGT SNOW  26  26 100 SW10      30.32S VSB 1   WCI  17
SANTA FE       CLOUDY    30  24  78 S7        30.31F WCI  23
TAOS           CLOUDY    27  23  86 W5        30.32S WCI  21
ANGEL FIRE     FLURRIES  27  24  87 CALM      30.31F

$$
NMZ402-403-502-505>509-301400-
WESTCENTRAL MOUNTAINS/SOUTHWEST MOUNTAINS

CITY           SKY/WX    TMP DP  RH WIND       PRES   REMARKS
GALLUP         FLURRIES  32  29  88 E12       30.15F WCI  23
GRANTS         CLOUDY    30  29  94 S18G24    30.23F WCI  18
SILVER CITY    LGT RAIN  39  37  93 SE14      30.20S WCI  31

$$
NMZ407-409-411-412-301400-
SOUTHERN DESERTS

CITY           SKY/WX    TMP DP  RH WIND       PRES   REMARKS
LORDSBURG      LGT RAIN  41  39  93 E24G33    30.13F
DEMING         CLOUDY    40  39  97 E22       30.22R WCI  30
LAS CRUCES     RAIN      41  40  95 E9        30.23S
HOLLOMAN AFB   LGT RAIN  40  40  99 SW8       30.26S
ALAMOGORDO     LGT RAIN  41  39  93 W5        30.28S
T OR C         LGT RAIN  40  38  93 N8        30.24F WCI  34

$$
NMZ519>523-301400-
CENTRAL VALLEYS/CENTRAL HIGHLANDS

CITY           SKY/WX    TMP DP  RH WIND       PRES   REMARKS
ALBUQUERQUE    FLURRIES  35  28  75 E21       30.28F WCI  24
DOUBLE EAGLE   LGT SNOW  30  28  93 N8        30.29F WCI  23
MORIARTY ARPT  LGT SNOW  30  28  90 CALM      30.34S
CLINES CORNERS LGT SNOW  27  24  89 E14       30.28F FOG     WCI  16
BELEN          LGT RAIN  33  33 100 NW7       30.29S WCI  26
SOCORRO        LGT RAIN  37  34  87 CALM      30.29S

$$
NMZ524>526-539-540-301400-
SOUTHCENTRAL MOUNTAINS

CITY           SKY/WX    TMP DP  RH WIND       PRES   REMARKS
RUIDOSO        MIX PCPN  28  27  93 SE9       30.34S WCI  20

$$
NMZ527>531-301400-
NORTHEAST HIGHLANDS/NORTHEAST PLAINS

CITY           SKY/WX    TMP DP  RH WIND       PRES   REMARKS
LAS VEGAS      LGT SNOW  26  24  92 CALM      30.34F FOG
RATON          LGT SNOW  30  29  96 SW12      30.33F FOG     WCI  20
CLAYTON        CLOUDY    36  29  75 S8        30.36F WCI  30

$$
NMZ532>537-301400-
EASTCENTRAL PLAINS

CITY           SKY/WX    TMP DP  RH WIND       PRES   REMARKS
TUCUMCARI      CLOUDY    38  32  79 SE6       30.39S WCI  33
CANNON AFB     MOCLDY    37  29  73 SE2       30.40S
CLOVIS AIRPORT CLOUDY    37  28  70 SE6       30.41S WCI  33

$$
NMZ028-029-538-301400-
SOUTHEAST PLAINS

CITY           SKY/WX    TMP DP  RH WIND       PRES   REMARKS
ROSWELL        CLOUDY    42  30  62 SE5       30.38S
ARTESIA        CLOUDY    41  32  70 S5        30.40S
CARLSBAD       CLOUDY    43  29  57 E8        30.38S
HOBBS          LGTSLEET  39  27  60 NE10      30.41S WCI  32


$$


USA.gov is the U.S. government's official web portal to all federal, state and local government web resources and services.